Time,TemperatureF,DewpointF,PressureIn,WindDirection,WindDirectionDegrees,WindSpeedMPH,WindSpeedGustMPH,Humidity,HourlyPrecipIn,Conditions,Clouds,dailyrainin,SolarRadiationWatts/m^2,SoftwareType,DateUTC
2013-05-18 00:01:00,67.0,31.0,-100.00,NW,307,23.0,44.0,26,0.00,,,0.00,0.000000,,2013-05-18 07:01:00,
2013-05-18 00:11:00,67.0,31.0,-100.00,NW,307,23.0,44.0,26,0.00,,,0.00,0.000000,,2013-05-18 07:11:00,
2013-05-18 00:21:00,67.0,31.0,-100.00,NW,307,23.0,44.0,26,0.00,,,0.00,0.000000,,2013-05-18 07:21:00,
2013-05-18 00:52:00,65.0,27.0,-100.00,NW,312,26.0,37.0,24,0.00,,,0.00,0.000000,,2013-05-18 07:52:00,
2013-05-18 01:01:00,65.0,27.0,-100.00,NW,312,26.0,37.0,24,0.00,,,0.00,0.000000,,2013-05-18 08:01:00,
2013-05-18 01:11:00,65.0,27.0,-100.00,NW,312,26.0,37.0,24,0.00,,,0.00,0.000000,,2013-05-18 08:11:00,
2013-05-18 01:21:00,65.0,27.0,-100.00,NW,312,26.0,37.0,24,0.00,,,0.00,0.000000,,2013-05-18 08:21:00,
2013-05-18 01:52:00,64.0,24.0,-100.00,NW,310,33.0,43.0,22,0.00,,,0.00,0.000000,,2013-05-18 08:52:00,
2013-05-18 02:02:00,64.0,24.0,-100.00,NW,310,33.0,43.0,22,0.00,,,0.00,0.000000,,2013-05-18 09:02:00,
2013-05-18 02:11:00,64.0,24.0,-100.00,NW,310,33.0,43.0,22,0.00,,,0.00,0.000000,,2013-05-18 09:11:00,
2013-05-18 02:22:00,64.0,24.0,-100.00,NW,310,33.0,43.0,22,0.00,,,0.00,0.000000,,2013-05-18 09:22:00,
2013-05-18 02:53:00,64.0,28.0,-100.00,NW,317,28.0,39.0,26,0.00,,,0.00,0.000000,,2013-05-18 09:53:00,
2013-05-18 03:02:00,64.0,28.0,-100.00,NW,317,28.0,39.0,26,0.00,,,0.00,0.000000,,2013-05-18 10:02:00,
2013-05-18 03:12:00,64.0,28.0,-100.00,NW,317,28.0,39.0,26,0.00,,,0.00,0.000000,,2013-05-18 10:12:00,
2013-05-18 03:22:00,64.0,28.0,-100.00,NW,317,28.0,39.0,26,0.00,,,0.00,0.000000,,2013-05-18 10:22:00,
2013-05-18 03:52:00,65.0,27.0,-100.00,WNW,302,17.0,35.0,24,0.00,,,0.00,0.000000,,2013-05-18 10:52:00,
2013-05-18 04:02:00,65.0,27.0,-100.00,WNW,302,17.0,35.0,24,0.00,,,0.00,0.000000,,2013-05-18 11:02:00,
2013-05-18 04:12:00,65.0,27.0,-100.00,WNW,302,17.0,35.0,24,0.00,,,0.00,0.000000,,2013-05-18 11:12:00,
2013-05-18 04:22:00,65.0,27.0,-100.00,WNW,302,17.0,35.0,24,0.00,,,0.00,0.000000,,2013-05-18 11:22:00,
2013-05-18 04:52:00,63.0,27.0,-100.00,NW,320,19.0,27.0,25,0.00,,,0.00,0.000000,,2013-05-18 11:52:00,
2013-05-18 05:01:00,63.0,27.0,-100.00,NW,320,19.0,27.0,25,0.00,,,0.00,0.000000,,2013-05-18 12:01:00,
2013-05-18 05:12:00,63.0,27.0,-100.00,NW,320,19.0,27.0,25,0.00,,,0.00,0.000000,,2013-05-18 12:12:00,
2013-05-18 05:23:00,63.0,27.0,-100.00,NW,320,19.0,27.0,25,0.00,,,0.00,0.000000,,2013-05-18 12:23:00,
2013-05-18 05:52:00,64.0,25.0,-100.00,NW,315,16.0,26.0,23,0.00,,,0.00,0.000000,,2013-05-18 12:52:00,
2013-05-18 06:01:00,64.0,25.0,-100.00,NW,315,16.0,26.0,23,0.00,,,0.00,0.000000,,2013-05-18 13:01:00,
2013-05-18 06:11:00,64.0,25.0,-100.00,NW,315,16.0,26.0,23,0.00,,,0.00,0.000000,,2013-05-18 13:11:00,
2013-05-18 06:21:00,64.0,25.0,-100.00,NW,315,16.0,26.0,23,0.00,,,0.00,0.000000,,2013-05-18 13:21:00,
2013-05-18 06:52:00,63.0,25.0,-100.00,NW,320,13.0,23.0,23,0.00,,,0.00,26.000000,,2013-05-18 13:52:00,
2013-05-18 07:03:00,63.0,25.0,-100.00,NW,320,13.0,23.0,23,0.00,,,0.00,26.000000,,2013-05-18 14:03:00,
2013-05-18 07:12:00,63.0,25.0,-100.00,NW,320,13.0,23.0,23,0.00,,,0.00,26.000000,,2013-05-18 14:12:00,
2013-05-18 07:22:00,63.0,25.0,-100.00,NW,320,13.0,23.0,23,0.00,,,0.00,26.000000,,2013-05-18 14:22:00,
2013-05-18 07:54:00,66.0,25.0,-100.00,NW,326,13.0,21.0,21,0.00,,,0.00,224.000000,,2013-05-18 14:54:00,
2013-05-18 08:03:00,66.0,25.0,-100.00,NW,326,13.0,21.0,21,0.00,,,0.00,224.000000,,2013-05-18 15:03:00,
2013-05-18 08:13:00,66.0,25.0,-100.00,NW,326,13.0,21.0,21,0.00,,,0.00,224.000000,,2013-05-18 15:13:00,
2013-05-18 08:23:00,66.0,25.0,-100.00,NW,326,13.0,21.0,21,0.00,,,0.00,224.000000,,2013-05-18 15:23:00,
2013-05-18 08:53:00,68.0,20.0,-100.00,NE,35,16.0,24.0,16,0.00,,,0.00,486.000000,,2013-05-18 15:53:00,
2013-05-18 09:02:00,68.0,20.0,-100.00,NE,35,16.0,24.0,16,0.00,,,0.00,486.000000,,2013-05-18 16:02:00,
2013-05-18 09:12:00,68.0,20.0,-100.00,NE,35,16.0,24.0,16,0.00,,,0.00,486.000000,,2013-05-18 16:12:00,
2013-05-18 09:22:00,68.0,20.0,-100.00,NE,35,16.0,24.0,16,0.00,,,0.00,486.000000,,2013-05-18 16:22:00,
2013-05-18 09:52:00,70.0,19.0,-100.00,NNE,25,20.0,28.0,14,0.00,,,0.00,750.000000,,2013-05-18 16:52:00,
2013-05-18 10:02:00,70.0,19.0,-100.00,NNE,25,20.0,28.0,14,0.00,,,0.00,750.000000,,2013-05-18 17:02:00,
2013-05-18 10:52:00,72.0,17.0,-100.00,NNE,27,18.0,31.0,12,0.00,,,0.00,980.000000,,2013-05-18 17:52:00,
2013-05-18 11:01:00,72.0,17.0,-100.00,NNE,27,18.0,31.0,12,0.00,,,0.00,980.000000,,2013-05-18 18:01:00,
2013-05-18 11:12:00,72.0,17.0,-100.00,NNE,27,18.0,31.0,12,0.00,,,0.00,980.000000,,2013-05-18 18:12:00,
2013-05-18 11:21:00,72.0,17.0,-100.00,NNE,27,18.0,31.0,12,0.00,,,0.00,980.000000,,2013-05-18 18:21:00,
2013-05-18 11:52:00,77.0,20.0,-100.00,East,86,4.0,26.0,12,0.00,,,0.00,1155.000000,,2013-05-18 18:52:00,
2013-05-18 12:02:00,77.0,20.0,-100.00,East,86,4.0,26.0,12,0.00,,,0.00,1155.000000,,2013-05-18 19:02:00,
2013-05-18 12:11:00,77.0,20.0,-100.00,East,86,4.0,26.0,12,0.00,,,0.00,1155.000000,,2013-05-18 19:11:00,
2013-05-18 12:22:00,77.0,20.0,-100.00,East,86,4.0,26.0,12,0.00,,,0.00,1155.000000,,2013-05-18 19:22:00,
2013-05-18 12:52:00,77.0,18.0,-100.00,SSW,197,5.0,16.0,11,0.00,,,0.00,1255.000000,,2013-05-18 19:52:00,
2013-05-18 13:01:00,77.0,18.0,-100.00,SSW,197,5.0,16.0,11,0.00,,,0.00,1255.000000,,2013-05-18 20:01:00,
2013-05-18 13:11:00,77.0,18.0,-100.00,SSW,197,5.0,16.0,11,0.00,,,0.00,1255.000000,,2013-05-18 20:11:00,
2013-05-18 13:22:00,77.0,18.0,-100.00,SSW,197,5.0,16.0,11,0.00,,,0.00,1255.000000,,2013-05-18 20:22:00,
2013-05-18 13:52:00,79.0,22.0,-100.00,SSE,167,13.0,26.0,12,0.00,,,0.00,1281.000000,,2013-05-18 20:52:00,
2013-05-18 14:01:00,79.0,22.0,-100.00,SSE,167,13.0,26.0,12,0.00,,,0.00,1281.000000,,2013-05-18 21:01:00,
2013-05-18 14:11:00,79.0,22.0,-100.00,SSE,167,13.0,26.0,12,0.00,,,0.00,1281.000000,,2013-05-18 21:11:00,
2013-05-18 14:21:00,79.0,22.0,-100.00,SSE,167,13.0,26.0,12,0.00,,,0.00,1281.000000,,2013-05-18 21:21:00,
2013-05-18 14:53:00,83.0,25.0,-100.00,SSE,167,10.0,26.0,12,0.00,,,0.00,1236.000000,,2013-05-18 21:53:00,
2013-05-18 15:03:00,83.0,25.0,-100.00,SSE,167,10.0,26.0,12,0.00,,,0.00,1236.000000,,2013-05-18 22:03:00,
2013-05-18 15:12:00,83.0,25.0,-100.00,SSE,167,10.0,26.0,12,0.00,,,0.00,1236.000000,,2013-05-18 22:12:00,
2013-05-18 15:23:00,83.0,25.0,-100.00,SSE,167,10.0,26.0,12,0.00,,,0.00,1236.000000,,2013-05-18 22:23:00,
2013-05-18 15:52:00,78.0,21.0,-100.00,SSE,155,12.0,26.0,12,0.00,,,0.00,1125.000000,,2013-05-18 22:52:00,
2013-05-18 16:01:00,78.0,21.0,-100.00,SSE,155,12.0,26.0,12,0.00,,,0.00,1125.000000,,2013-05-18 23:01:00,
2013-05-18 16:11:00,78.0,21.0,-100.00,SSE,155,12.0,26.0,12,0.00,,,0.00,1125.000000,,2013-05-18 23:11:00,
2013-05-18 16:21:00,78.0,21.0,-100.00,SSE,155,12.0,26.0,12,0.00,,,0.00,1125.000000,,2013-05-18 23:21:00,
2013-05-18 16:53:00,81.0,26.0,-100.00,SW,222,12.0,25.0,13,0.00,,,0.00,937.000000,,2013-05-18 23:53:00,
2013-05-18 17:01:00,81.0,26.0,-100.00,SW,222,12.0,25.0,13,0.00,,,0.00,937.000000,,2013-05-19 00:01:00,
2013-05-18 17:11:00,81.0,26.0,-100.00,SW,222,12.0,25.0,13,0.00,,,0.00,937.000000,,2013-05-19 00:11:00,
2013-05-18 17:21:00,81.0,26.0,-100.00,SW,222,12.0,25.0,13,0.00,,,0.00,937.000000,,2013-05-19 00:21:00,
2013-05-18 17:52:00,81.0,26.0,-100.00,SSW,212,12.0,24.0,13,0.00,,,0.00,703.000000,,2013-05-19 00:52:00,
2013-05-18 18:01:00,81.0,26.0,-100.00,SSW,212,12.0,24.0,13,0.00,,,0.00,703.000000,,2013-05-19 01:01:00,
2013-05-18 18:11:00,81.0,26.0,-100.00,SSW,212,12.0,24.0,13,0.00,,,0.00,703.000000,,2013-05-19 01:11:00,
2013-05-18 18:21:00,81.0,26.0,-100.00,SSW,212,12.0,24.0,13,0.00,,,0.00,703.000000,,2013-05-19 01:21:00,
2013-05-18 18:52:00,75.0,23.0,-100.00,West,266,12.0,19.0,14,0.00,,,0.00,211.000000,,2013-05-19 01:52:00,
2013-05-18 19:01:00,75.0,23.0,-100.00,West,266,12.0,19.0,14,0.00,,,0.00,211.000000,,2013-05-19 02:01:00,
2013-05-18 19:11:00,75.0,23.0,-100.00,West,266,12.0,19.0,14,0.00,,,0.00,211.000000,,2013-05-19 02:11:00,
2013-05-18 19:21:00,75.0,23.0,-100.00,West,266,12.0,19.0,14,0.00,,,0.00,211.000000,,2013-05-19 02:21:00,
2013-05-18 19:52:00,71.0,25.0,-100.00,WNW,287,15.0,23.0,18,0.00,,,0.00,32.000000,,2013-05-19 02:52:00,
2013-05-18 20:01:00,71.0,25.0,-100.00,WNW,287,15.0,23.0,18,0.00,,,0.00,32.000000,,2013-05-19 03:01:00,
2013-05-18 20:11:00,71.0,25.0,-100.00,WNW,287,15.0,23.0,18,0.00,,,0.00,32.000000,,2013-05-19 03:11:00,
2013-05-18 20:21:00,71.0,25.0,-100.00,WNW,287,15.0,23.0,18,0.00,,,0.00,32.000000,,2013-05-19 03:21:00,
2013-05-18 20:53:00,70.0,30.0,-100.00,NW,309,29.0,37.0,23,0.00,,,0.00,6.000000,,2013-05-19 03:53:00,
2013-05-18 21:02:00,70.0,30.0,-100.00,NW,309,29.0,37.0,23,0.00,,,0.00,6.000000,,2013-05-19 04:02:00,
2013-05-18 21:12:00,70.0,30.0,-100.00,NW,309,29.0,37.0,23,0.00,,,0.00,6.000000,,2013-05-19 04:12:00,
2013-05-18 21:23:00,70.0,30.0,-100.00,NW,309,29.0,37.0,23,0.00,,,0.00,6.000000,,2013-05-19 04:23:00,
2013-05-18 21:53:00,70.0,29.0,-100.00,WNW,303,26.0,43.0,22,0.00,,,0.00,0.000000,,2013-05-19 04:53:00,
2013-05-18 22:02:00,70.0,29.0,-100.00,WNW,303,26.0,43.0,22,0.00,,,0.00,0.000000,,2013-05-19 05:02:00,
2013-05-18 22:12:00,70.0,29.0,-100.00,WNW,303,26.0,43.0,22,0.00,,,0.00,0.000000,,2013-05-19 05:12:00,
2013-05-18 22:21:00,70.0,29.0,-100.00,WNW,303,26.0,43.0,22,0.00,,,0.00,0.000000,,2013-05-19 05:21:00,
2013-05-18 22:52:00,71.0,29.0,-100.00,NW,307,26.0,38.0,21,0.00,,,0.00,0.000000,,2013-05-19 05:52:00,
2013-05-18 23:02:00,71.0,29.0,-100.00,NW,307,26.0,38.0,21,0.00,,,0.00,0.000000,,2013-05-19 06:02:00,
2013-05-18 23:12:00,71.0,29.0,-100.00,NW,307,26.0,38.0,21,0.00,,,0.00,0.000000,,2013-05-19 06:12:00,
2013-05-18 23:21:00,71.0,29.0,-100.00,NW,307,26.0,38.0,21,0.00,,,0.00,0.000000,,2013-05-19 06:21:00,
2013-05-18 23:52:00,69.0,26.0,-100.00,WNW,303,22.0,38.0,20,0.00,,,0.00,0.000000,,2013-05-19 06:52:00,